This demonstration page uses our WeatherBlox Daily Observations layout. Learn more.

Left ArrowRight Arrow

34.16533, -84.80231

Hourly Observations for June 30, 2019

Temp ( °F °C ) Dew Point ( °F °C ) Humidity (%) Winds ( mph kmh ) Pressure ( in mb ) Visibility ( mi km ) Precip ( " mm )
12:53 am 00:53 Clear with Mist and Fog 69 20.6 69 20.6 100 100 Calm 30.10 1019 6 10 0.00 0.00
1:53 am 01:53 Mostly Clear with Mist and Fog 69 20.6 69 20.6 100 100 Calm 30.10 1019 6 10 0.00 0.00
2:41 am 02:41 Partly Cloudy with Mist and Fog 69 20.6 68 20 96 96 Calm 30.10 1019 2 3 0.00 0.00
2:46 am 02:46 Mostly Cloudy with Mist and Fog 69 20.6 68 20 96 96 Calm 30.10 1019 1 1 0.00 0.00
2:53 am 02:53 Mostly Cloudy with Mist and Fog 69 20.6 68 20 96 96 Calm 30.08 1019 1 2 0.00 0.00
2:59 am 02:59 Cloudy with Mist and Fog 69 20.6 68 20 96 96 Calm 30.10 1019 3 5 0.00 0.00
3:05 am 03:05 Cloudy with Mist and Fog 69 20.6 69 20.6 100 100 Calm 30.10 1019 2 3 0.00 0.00
3:18 am 03:18 Mostly Cloudy with Fog 69 20.6 68 20 96 96 Calm 30.10 1019 1 1 0.00 0.00
3:33 am 03:33 Mostly Cloudy with Mist and Fog 68 20 67 19.4 96 96 Calm 30.10 1019 3 4 0.00 0.00
3:40 am 03:40 Mostly Cloudy with Mist and Fog 68 20 68 20 100 100 Calm 30.10 1019 4 6 0.00 0.00
3:45 am 03:45 Mostly Cloudy with Mist and Fog 68 20 68 20 100 100 Calm 30.10 1019 2 3 0.00 0.00
3:53 am 03:53 Mostly Cloudy with Fog 68 20 68 20 100 100 Calm 30.08 1019 1 1 0.00 0.00
4:19 am 04:19 Cloudy with Mist and Fog 67 19.4 67 19.4 100 100 Calm 30.10 1019 2 3 0.00 0.00
4:28 am 04:28 Mostly Cloudy with Mist and Fog 67 19.4 66 18.9 97 97 Calm 30.10 1019 4 6 0.00 0.00
4:53 am 04:53 Mostly Clear with Mist and Fog 66 18.9 66 18.9 100 100 Calm 30.09 1019 4 6 0.00 0.00
5:53 am 05:53 Clear with Mist and Fog 67 19.4 66 18.9 97 97 Calm 30.09 1019 6 10 0.00 0.00
6:07 am 06:07 Partly Cloudy with Mist and Fog 66 18.9 66 18.9 100 100 Calm 30.11 1019 6 10 0.00 0.00
6:53 am 06:53 Sunny with Mist and Fog 66 18.9 66 18.9 100 100 Calm 30.09 1019 6 10 0.00 0.00
7:40 am 07:40 Partly Cloudy with Mist and Fog 70 21.1 68 20 93 93 Calm 30.11 1020 6 10 0.00 0.00
7:53 am 07:53 Mostly Sunny 70 21.1 68 20 93 93 Calm 30.09 1019 7 11 0.00 0.00
8:53 am 08:53 Sunny 73 22.8 71 21.7 94 94 N 3 6 30.09 1019 7 11 0.00 0.00
9:09 am 09:09 Partly Cloudy 73 22.8 71 21.7 94 94 N 3 6 30.10 1019 7 11 0.00 0.00
9:53 am 09:53 Mostly Sunny 74 23.3 71 21.7 91 91 Calm 30.09 1019 9 14 0.00 0.00
10:53 am 10:53 Mostly Sunny 80 26.7 72 22.2 76 76 VRB 3 6 30.08 1019 10 16 0.00 0.00
11:53 am 11:53 Sunny 83 28.3 70 21.1 65 65 VRB 3 6 30.08 1019 10 16 0.00 0.00
12:53 pm 12:53 Sunny 85 29.4 71 21.7 63 63 VRB 3 6 30.07 1018 10 16 0.00 0.00
1:53 pm 13:53 Mostly Sunny 85 29.4 70 21.1 61 61 VRB 3 6 30.05 1018 10 16 0.00 0.00
2:53 pm 14:53 Mostly Sunny 88 31.1 67 19.4 50 50 SE 3 6 30.02 1017 10 16 0.00 0.00
3:53 pm 15:53 Mostly Cloudy 89 31.7 68 20 50 50 Calm 30.01 1016 10 16 0.00 0.00
4:53 pm 16:53 Sunny 89 31.7 68 20 50 50 VRB 3 6 29.99 1016 10 16 0.00 0.00
5:53 pm 17:53 Sunny 89 31.7 67 19.4 48 48 VRB 5 7 29.97 1015 10 16 0.00 0.00
6:19 pm 18:19 Partly Cloudy 89 31.7 68 20 50 50 SW 5 7 29.95 1014 10 16 0.00 0.00
6:53 pm 18:53 Sunny 89 31.7 67 19.4 48 48 S 6 9 29.96 1015 10 16 0.00 0.00
7:53 pm 19:53 Sunny 85 29.4 69 20.6 59 59 SSW 3 6 29.96 1015 10 16 0.00 0.00
8:53 pm 20:53 Sunny 82 27.8 70 21.1 67 67 Calm 29.96 1014 10 16 0.00 0.00
9:53 pm 21:53 Clear 79 26.1 70 21.1 74 74 Calm 29.98 1015 10 16 0.00 0.00
10:53 pm 22:53 Clear 76 24.4 70 21.1 82 82 Calm 30.01 1016 10 16 0.00 0.00
11:53 pm 23:53 Clear 74 23.3 69 20.6 85 85 Calm 30.03 1017 10 16 0.00 0.00

Powered by AerisWeather